Weather History for KPNE - August, 2013

Change the Weather History Date:

Wednesday, August 28, 2013

  Actual Average Record
Temperature  
Mean Temperature 74 °F -  
Max Temperature 77 °F 80 °F 91 °F (2001)
Min Temperature 72 °F 63 °F 57 °F (2010)
Cooling Degree Days 10    
Growing Degree Days 24 (Base 50)    
Moisture  
Dew Point 72 °F    
Average Humidity 90    
Maximum Humidity 100    
Minimum Humidity 79    
Precipitation  
Precipitation 0.48 in - - ()
Sea Level Pressure  
Sea Level Pressure 29.89 in    
Wind  
Wind Speed 2 mph (ENE)    
Max Wind Speed 9 mph    
Max Gust Speed -    
Visibility 5 miles    
Events Rain , Thunderstorm    
Averages and records for this station are not official NWS values.
T = Trace of Precipitation, MM = Missing Value Source: NWS Daily Summary

Daily Weather History Graph

Daily Weather History Graph

Search for Another Location

Airport or City:

Trip Planner

Search our weather history database for the weather conditions in past years. The results will help you decide how hot, cold, wet, or windy it might be!

Date:

Astronomy

Aug. 28, 2013 Rise Set
Actual Time 6:24 AM EDT 7:37 PM EDT
Civil Twilight 5:56 AM EDT 8:05 PM EDT
Nautical Twilight 5:22 AM EDT 8:38 PM EDT
Astronomical Twilight 4:47 AM EDT 9:13 PM EDT
Moon No Moon Rise 2:12 PM EDT (8/28)
Length of Visible Light 14h 09m
Length of Day
13h 13m
Waning Gibbous, 47% of the Moon is Illuminated
Aug 28
Waning Gibbous
Sep 5
New
Sep 12
First Quarter
Sep 19
Full
Sep 26
Last Quarter

Hourly Weather History & Observations

Time (EDT) Temp. Dew Point Humidity Pressure Visibility Wind Dir Wind Speed Gust Speed Precip Events Conditions
12:54 AM 75.0 °F 68.0 °F 79% 29.91 in 10.0 mi Calm Calm - N/A   Clear
1:54 AM 73.9 °F 66.9 °F 79% 29.90 in 10.0 mi Calm Calm - N/A   Clear
2:54 AM 73.0 °F 66.9 °F 81% 29.88 in 10.0 mi Calm Calm - N/A   Clear
3:54 AM 72.0 °F 68.0 °F 87% 29.88 in 9.0 mi Calm Calm - N/A   Clear
4:54 AM 72.0 °F 66.9 °F 84% 29.88 in 10.0 mi Calm Calm - N/A   Clear
5:54 AM 72.0 °F 66.9 °F 84% 29.88 in 9.0 mi Calm Calm - N/A   Clear
6:54 AM 73.0 °F 68.0 °F 84% 29.89 in 7.0 mi NNE 3.5 mph - N/A   Clear
7:54 AM 75.0 °F 70.0 °F 84% 29.89 in 8.0 mi Calm Calm - N/A   Partly Cloudy
8:54 AM 77.0 °F 71.1 °F 82% 29.88 in 7.0 mi Calm Calm - 0.00 in Rain Light Rain
9:54 AM 75.9 °F 71.1 °F 85% 29.89 in 5.0 mi Calm Calm - 0.01 in Rain Light Rain
10:54 AM 75.0 °F 72.0 °F 90% 29.90 in 4.0 mi Calm Calm - 0.03 in Rain Light Rain
11:42 AM 75.2 °F 73.4 °F 94% 29.90 in 2.5 mi NE 6.9 mph - 0.03 in Rain Rain
11:54 AM 75.0 °F 73.0 °F 94% 29.89 in 2.5 mi ENE 3.5 mph - 0.04 in Rain Light Rain
12:01 PM 75.2 °F 73.4 °F 94% 29.90 in 2.0 mi NNE 6.9 mph - 0.02 in Rain , Thunderstorm Rain
12:11 PM 75.2 °F 73.4 °F 94% 29.89 in 2.0 mi ENE 4.6 mph - 0.04 in Rain , Thunderstorm Light Rain
12:36 PM 75.2 °F 73.4 °F 94% 29.90 in 2.0 mi West 5.8 mph - 0.07 in Rain Rain
12:54 PM 73.9 °F 71.1 °F 91% 29.90 in 2.0 mi West 4.6 mph - 0.13 in Rain Heavy Rain
1:15 PM 73.4 °F 71.6 °F 94% 29.90 in 1.2 mi SSW 4.6 mph - 0.09 in Rain Heavy Rain
1:22 PM 73.4 °F 71.6 °F 94% 29.90 in 1.2 mi Calm Calm - 0.15 in Rain Heavy Rain
1:29 PM 73.4 °F 71.6 °F 94% 29.90 in 3.0 mi Variable 4.6 mph - 0.16 in Rain Light Rain
1:54 PM 75.0 °F 71.1 °F 87% 29.89 in 4.0 mi SSE 3.5 mph - 0.19 in Rain Light Rain
2:49 PM 77.0 °F 73.4 °F 89% 29.88 in 9.0 mi SE 5.8 mph - 0.00 in   Overcast
2:54 PM 75.9 °F 73.0 °F 91% 29.88 in 8.0 mi SE 3.5 mph - 0.00 in   Overcast
3:01 PM 77.0 °F 73.4 °F 89% 29.88 in 7.0 mi SE 5.8 mph - 0.00 in Rain Light Rain
3:08 PM 75.2 °F 73.4 °F 94% 29.88 in 4.0 mi Variable 3.5 mph - 0.01 in Rain Rain
3:54 PM 75.9 °F 72.0 °F 87% 29.87 in 4.0 mi Calm Calm - 0.06 in Rain Rain
4:54 PM 75.9 °F 71.1 °F 85% 29.85 in 10.0 mi Calm Calm - 0.02 in   Overcast
5:34 PM 77.0 °F 71.6 °F 83% 29.85 in 10.0 mi East 5.8 mph - N/A   Overcast
5:54 PM 77.0 °F 72.0 °F 84% 29.86 in 10.0 mi Calm Calm - N/A   Overcast
6:54 PM 75.9 °F 73.0 °F 91% 29.86 in 7.0 mi Calm Calm - 0.00 in   Mostly Cloudy
7:54 PM 75.9 °F 73.0 °F 91% 29.87 in 6.0 mi NE 5.8 mph - N/A   Mostly Cloudy
8:16 PM 75.2 °F 73.4 °F 94% 29.88 in 5.0 mi NNE 5.8 mph - N/A   Overcast
8:52 PM 75.2 °F 73.4 °F 94% 29.88 in 4.0 mi Calm Calm - N/A   Mostly Cloudy
8:54 PM 75.9 °F 73.0 °F 91% 29.87 in 4.0 mi Calm Calm - N/A   Mostly Cloudy
9:21 PM 73.4 °F 71.6 °F 94% 29.87 in 2.5 mi Calm Calm - N/A   Clear
9:42 PM 73.4 °F 71.6 °F 94% 29.88 in 1.2 mi NE 5.8 mph - N/A   Partly Cloudy
9:48 PM 73.4 °F 71.6 °F 94% 29.88 in 0.8 mi NE 4.6 mph - N/A   Mist
9:49 PM 73.9 °F 72.0 °F 93% 29.88 in 0.8 mi NNE 4.6 mph - N/A   Mist
9:56 PM 73.4 °F 71.6 °F 94% 29.88 in 1.8 mi NNE 3.5 mph - N/A   Mostly Cloudy
9:58 PM 73.4 °F 73.4 °F 100% 29.88 in 2.0 mi Calm Calm - N/A   Mostly Cloudy
10:13 PM 73.4 °F 71.6 °F 94% 29.88 in 3.0 mi Calm Calm - N/A   Mostly Cloudy
10:30 PM 73.4 °F 71.6 °F 94% 29.89 in 2.5 mi ENE 6.9 mph - N/A   Scattered Clouds
10:39 PM 75.2 °F 73.4 °F 94% 29.89 in 3.0 mi ENE 5.8 mph - N/A   Mostly Cloudy
10:44 PM 75.2 °F 73.4 °F 94% 29.90 in 3.0 mi ENE 9.2 mph - N/A   Mostly Cloudy
10:51 PM 75.2 °F 73.4 °F 94% 29.91 in 3.0 mi ENE 6.9 mph - N/A   Mostly Cloudy
10:54 PM 75.0 °F 73.0 °F 94% 29.91 in 3.0 mi NE 5.8 mph - N/A   Overcast
11:32 PM 73.4 °F 71.6 °F 94% 29.90 in 2.5 mi NE 6.9 mph - N/A   Mostly Cloudy
11:54 PM 73.0 °F 71.1 °F 93% 29.89 in 2.5 mi ENE 4.6 mph - N/A   Partly Cloudy